| time (UTC) | temp C | wind direction | speed KPH | gust KPH | rain 1hr cm | rain 24hr cm | rain mn cm | humidity % | barometer mb |
| 20260507162516 | 15 | 0 | 1.6 | 4.8 | 0.00 | 0.05 | 0.03 | 48 | 1011.9 |
| 20260507162012 | 15 | 0 | 1.6 | 3.2 | 0.00 | 0.05 | 0.03 | 52 | 1012.0 |
| 20260507161514 | 15 | 0 | 0.0 | 3.2 | 0.00 | 0.05 | 0.03 | 53 | 1012.1 |
| 20260507161014 | 14 | 0 | 0.0 | 3.2 | 0.00 | 0.05 | 0.03 | 51 | 1012.2 |
| 20260507160514 | 14 | 0 | 0.0 | 4.8 | 0.00 | 0.05 | 0.03 | 51 | 1012.1 |
| 20260507160013 | 14 | 0 | 0.0 | 4.8 | 0.00 | 0.05 | 0.03 | 52 | 1012.3 |
| 20260507155513 | 14 | 0 | 0.0 | 3.2 | 0.00 | 0.05 | 0.03 | 49 | 1012.3 |
| 20260507155014 | 14 | 0 | 0.0 | 3.2 | 0.00 | 0.05 | 0.03 | 56 | 1012.2 |
| 20260507154511 | 14 | 0 | 0.0 | 3.2 | 0.00 | 0.05 | 0.03 | 53 | 1012.4 |
| 20260507154010 | 13 | 0 | 0.0 | 4.8 | 0.00 | 0.05 | 0.03 | 54 | 1012.2 |
| 20260507153511 | 13 | 0 | 0.0 | 4.8 | 0.00 | 0.05 | 0.03 | 51 | 1012.4 |
| 20260507153012 | 13 | 0 | 0.0 | 3.2 | 0.00 | 0.05 | 0.03 | 54 | 1012.4 |
| 20260507152006 | 13 | 0 | 0.0 | 1.6 | 0.00 | 0.05 | 0.03 | 53 | 1012.6 |
| 20260507151506 | 13 | 0 | 0.0 | 1.6 | 0.00 | 0.05 | 0.03 | 54 | 1012.6 |
| 20260507151005 | 13 | 0 | 0.0 | 1.6 | 0.00 | 0.05 | 0.03 | 58 | 1012.5 |
| 20260507150003 | 13 | 0 | 0.0 | 1.6 | 0.00 | 0.08 | 0.03 | 57 | 1012.7 |
| 20260507145504 | 12 | 0 | 0.0 | 1.6 | 0.00 | 0.08 | 0.03 | 60 | 1012.7 |
| 20260507145003 | 12 | 0 | 0.0 | 1.6 | 0.00 | 0.08 | 0.03 | 59 | 1012.8 |
| 20260507144503 | 12 | 0 | 0.0 | 1.6 | 0.00 | 0.08 | 0.03 | 60 | 1012.9 |
| 20260507144003 | 12 | 0 | 0.0 | 3.2 | 0.00 | 0.10 | 0.03 | 61 | 1013.0 |
| 20260507143503 | 12 | 0 | 0.0 | 3.2 | 0.00 | 0.13 | 0.03 | 61 | 1013.0 |
| 20260507143000 | 12 | 0 | 0.0 | 1.6 | 0.00 | 0.13 | 0.03 | 63 | 1013.0 |
| 20260507142458 | 12 | 0 | 0.0 | 1.6 | 0.00 | 0.15 | 0.03 | 63 | 1013.1 |
| 20260507141959 | 12 | 0 | 0.0 | 0.0 | 0.00 | 0.18 | 0.03 | 62 | 1013.0 |
| 20260507135958 | 12 | 0 | 0.0 | 1.6 | 0.00 | 0.20 | 0.03 | 62 | 1013.2 |
| 20260507135500 | 12 | 0 | 0.0 | 0.0 | 0.00 | 0.20 | 0.03 | 63 | 1013.3 |
| 20260507134959 | 12 | 0 | 0.0 | 1.6 | 0.00 | 0.20 | 0.03 | 60 | 1013.3 |
| 20260507133959 | 12 | 0 | 0.0 | 1.6 | 0.00 | 0.23 | 0.03 | 61 | 1013.6 |
| 20260507133500 | 12 | 0 | 0.0 | 1.6 | 0.00 | 0.23 | 0.03 | 60 | 1013.5 |
| 20260507133000 | 12 | 0 | 0.0 | 1.6 | 0.00 | 0.25 | 0.03 | 62 | 1013.5 |
| 20260507132458 | 12 | 0 | 0.0 | 1.6 | 0.00 | 0.30 | 0.03 | 60 | 1013.5 |
| 20260507132000 | 12 | 0 | 0.0 | 4.8 | 0.00 | 0.36 | 0.03 | 61 | 1013.4 |
| 20260507131458 | 12 | 0 | 0.0 | 4.8 | 0.00 | 0.38 | 0.03 | 62 | 1013.2 |
| 20260507125947 | 12 | 0 | 0.0 | 4.8 | 0.00 | 0.53 | 0.03 | 63 | 1013.4 |
| 20260507125440 | 12 | 0 | 0.0 | 4.8 | 0.00 | 0.56 | 0.03 | 64 | 1013.3 |
| 20260507124935 | 11 | 0 | 0.0 | 3.2 | 0.00 | 0.56 | 0.03 | 64 | 1013.1 |
| 20260507124429 | 11 | 0 | 0.0 | 1.6 | 0.00 | 0.56 | 0.03 | 66 | 1013.1 |
| 20260507123923 | 11 | 0 | 0.0 | 1.6 | 0.00 | 0.56 | 0.03 | 65 | 1013.2 |
| 20260507122911 | 11 | 0 | 0.0 | 3.2 | 0.00 | 0.56 | 0.03 | 66 | 1013.3 |
| 20260507122405 | 11 | 0 | 0.0 | 3.2 | 0.00 | 0.56 | 0.03 | 66 | 1013.3 |
| 20260507121858 | 11 | 0 | 0.0 | 1.6 | 0.00 | 0.56 | 0.03 | 68 | 1013.2 |
| 20260507121353 | 12 | 0 | 0.0 | 3.2 | 0.00 | 0.56 | 0.03 | 68 | 1013.3 |
| 20260507120846 | 12 | 0 | 0.0 | 6.4 | 0.00 | 0.56 | 0.03 | 67 | 1013.2 |
| 20260507120340 | 12 | 0 | 0.0 | 6.4 | 0.00 | 0.58 | 0.03 | 67 | 1013.2 |
| 20260507115832 | 12 | 0 | 0.0 | 6.4 | 0.00 | 0.58 | 0.03 | 69 | 1013.1 |
| 20260507115327 | 12 | 0 | 0.0 | 1.6 | 0.00 | 0.58 | 0.03 | 69 | 1013.1 |
| 20260507114821 | 12 | 0 | 0.0 | 3.2 | 0.00 | 0.58 | 0.03 | 70 | 1013.2 |
| 20260507114315 | 12 | 0 | 0.0 | 3.2 | 0.00 | 0.58 | 0.03 | 72 | 1013.0 |
| 20260507113809 | 12 | 0 | 0.0 | 3.2 | 0.00 | 0.58 | 0.03 | 74 | 1012.9 |
| 20260507112757 | 12 | 0 | 0.0 | 1.6 | 0.00 | 0.58 | 0.03 | 78 | 1012.8 |
| 20260507112250 | 12 | 0 | 0.0 | 1.6 | 0.00 | 0.58 | 0.03 | 78 | 1012.6 |
| 20260507111745 | 12 | 0 | 0.0 | 1.6 | 0.00 | 0.58 | 0.03 | 78 | 1012.6 |
| 20260507111238 | 12 | 0 | 0.0 | 1.6 | 0.00 | 0.58 | 0.03 | 78 | 1012.6 |
| 20260507110733 | 12 | 0 | 0.0 | 0.0 | 0.00 | 0.58 | 0.03 | 79 | 1012.7 |
| 20260507105232 | 12 | 0 | 0.0 | 0.0 | 0.00 | 0.58 | 0.03 | 81 | 1012.6 |
| 20260507104731 | 12 | 0 | 0.0 | 0.0 | 0.00 | 0.58 | 0.03 | 80 | 1012.6 |
| 20260507104230 | 12 | 0 | 0.0 | 0.0 | 0.00 | 0.58 | 0.03 | 81 | 1012.5 |
| 20260507103728 | 12 | 0 | 0.0 | 0.0 | 0.00 | 0.58 | 0.03 | 81 | 1012.4 |
| 20260507103224 | 12 | 0 | 0.0 | 0.0 | 0.00 | 0.58 | 0.03 | 81 | 1012.3 |
| 20260507102225 | 12 | 0 | 0.0 | 1.6 | 0.00 | 0.58 | 0.03 | 81 | 1012.3 |
| 20260507101722 | 12 | 0 | 0.0 | 1.6 | 0.00 | 0.58 | 0.03 | 81 | 1012.3 |
| 20260507101221 | 12 | 0 | 0.0 | 1.6 | 0.00 | 0.58 | 0.03 | 80 | 1012.2 |
| 20260507100719 | 12 | 0 | 0.0 | 0.0 | 0.00 | 0.58 | 0.03 | 81 | 1012.1 |
| 20260507100217 | 12 | 0 | 0.0 | 0.0 | 0.00 | 0.58 | 0.03 | 83 | 1012.0 |
| 20260507095217 | 12 | 0 | 0.0 | 0.0 | 0.00 | 0.58 | 0.03 | 81 | 1012.0 |
| 20260507094715 | 12 | 0 | 0.0 | 0.0 | 0.00 | 0.58 | 0.03 | 81 | 1012.1 |
| 20260507094212 | 12 | 0 | 0.0 | 0.0 | 0.00 | 0.58 | 0.03 | 81 | 1012.0 |
| 20260507093710 | 12 | 0 | 0.0 | 1.6 | 0.00 | 0.58 | 0.03 | 82 | 1012.1 |
| 20260507093208 | 12 | 0 | 0.0 | 3.2 | 0.00 | 0.58 | 0.03 | 81 | 1012.0 |
| 20260507092707 | 12 | 0 | 0.0 | 3.2 | 0.00 | 0.58 | 0.03 | 81 | 1012.1 |
| 20260507092205 | 12 | 0 | 0.0 | 1.6 | 0.00 | 0.58 | 0.03 | 82 | 1011.9 |
| 20260507091659 | 12 | 0 | 0.0 | 1.6 | 0.00 | 0.58 | 0.03 | 82 | 1011.7 |
| 20260507091153 | 12 | 0 | 0.0 | 1.6 | 0.00 | 0.58 | 0.03 | 82 | 1011.5 |
| 20260507090647 | 12 | 0 | 0.0 | 1.6 | 0.00 | 0.58 | 0.03 | 82 | 1011.7 |
| 20260507090141 | 12 | 0 | 0.0 | 1.6 | 0.00 | 0.58 | 0.03 | 82 | 1011.7 |
| 20260507085635 | 12 | 0 | 0.0 | 1.6 | 0.00 | 0.58 | 0.03 | 82 | 1011.7 |
| 20260507085129 | 12 | 0 | 0.0 | 1.6 | 0.00 | 0.58 | 0.03 | 82 | 1011.7 |
| 20260507084623 | 12 | 0 | 0.0 | 1.6 | 0.00 | 0.58 | 0.03 | 82 | 1011.9 |
| 20260507084117 | 12 | 0 | 0.0 | 1.6 | 0.00 | 0.58 | 0.03 | 83 | 1011.9 |
| 20260507083611 | 12 | 0 | 0.0 | 1.6 | 0.00 | 0.58 | 0.03 | 83 | 1011.8 |
| 20260507083105 | 12 | 0 | 0.0 | 0.0 | 0.00 | 0.58 | 0.03 | 84 | 1011.7 |
| 20260507082559 | 12 | 0 | 0.0 | 3.2 | 0.00 | 0.58 | 0.03 | 84 | 1011.8 |
| 20260507082054 | 12 | 0 | 0.0 | 3.2 | 0.00 | 0.58 | 0.03 | 84 | 1011.7 |
| 20260507081554 | 12 | 0 | 0.0 | 1.6 | 0.00 | 0.58 | 0.03 | 84 | 1011.8 |
| 20260507081053 | 12 | 0 | 0.0 | 1.6 | 0.00 | 0.58 | 0.03 | 84 | 1011.6 |
| 20260507080552 | 12 | 0 | 0.0 | 0.0 | 0.00 | 0.58 | 0.03 | 85 | 1011.7 |
| 20260507080051 | 12 | 0 | 0.0 | 1.6 | 0.00 | 0.58 | 0.03 | 85 | 1011.5 |
| 20260507075547 | 12 | 0 | 0.0 | 1.6 | 0.00 | 0.58 | 0.03 | 85 | 1011.2 |
| 20260507074544 | 12 | 0 | 0.0 | 0.0 | 0.00 | 0.58 | 0.03 | 86 | 1011.0 |
| 20260507074044 | 12 | 0 | 0.0 | 0.0 | 0.00 | 0.58 | 0.03 | 86 | 1011.1 |
| 20260507073544 | 12 | 0 | 0.0 | 0.0 | 0.00 | 0.58 | 0.03 | 86 | 1011.2 |
| 20260507073045 | 12 | 0 | 0.0 | 0.0 | 0.00 | 0.58 | 0.03 | 86 | 1011.3 |
| 20260507072545 | 12 | 0 | 0.0 | 1.6 | 0.00 | 0.58 | 0.03 | 86 | 1011.0 |
| 20260507071543 | 12 | 0 | 0.0 | 3.2 | 0.00 | 0.58 | 0.03 | 86 | 1011.0 |
| 20260507071043 | 12 | 0 | 0.0 | 1.6 | 0.00 | 0.58 | 0.03 | 86 | 1011.1 |
| 20260507070541 | 12 | 0 | 0.0 | 1.6 | 0.00 | 0.58 | 0.03 | 87 | 1011.1 |
| 20260507065541 | 12 | 0 | 0.0 | 1.6 | 0.00 | 0.58 | 0.03 | 88 | 1011.1 |
| 20260507065039 | 12 | 0 | 0.0 | 1.6 | 0.00 | 0.58 | 0.03 | 88 | 1011.0 |
| 20260507064538 | 12 | 0 | 0.0 | 1.6 | 0.00 | 0.58 | 0.03 | 89 | 1011.2 |
| 20260507064037 | 12 | 0 | 0.0 | 1.6 | 0.00 | 0.58 | 0.03 | 89 | 1011.2 |
| 20260507063539 | 12 | 0 | 0.0 | 1.6 | 0.00 | 0.58 | 0.03 | 89 | 1011.2 |
| 20260507063039 | 12 | 0 | 0.0 | 1.6 | 0.00 | 0.58 | 0.03 | 89 | 1011.2 |
| 20260507062536 | 12 | 0 | 0.0 | 1.6 | 0.00 | 0.58 | 0.03 | 89 | 1011.2 |
| 20260507062036 | 12 | 0 | 0.0 | 1.6 | 0.00 | 0.58 | 0.03 | 89 | 1011.3 |
| 20260507061535 | 12 | 0 | 0.0 | 1.6 | 0.00 | 0.58 | 0.03 | 90 | 1011.4 |
| 20260507061034 | 12 | 0 | 0.0 | 3.2 | 0.00 | 0.58 | 0.03 | 90 | 1011.2 |
| 20260507060535 | 12 | 0 | 0.0 | 3.2 | 0.00 | 0.58 | 0.03 | 90 | 1011.1 |
| 20260507055534 | 13 | 0 | 0.0 | 1.6 | 0.00 | 0.58 | 0.03 | 91 | 1011.1 |
| 20260507055033 | 13 | 0 | 0.0 | 1.6 | 0.00 | 0.58 | 0.03 | 91 | 1011.0 |
| 20260507054534 | 13 | 0 | 0.0 | 1.6 | 0.00 | 0.58 | 0.03 | 91 | 1011.2 |
| 20260507053035 | 13 | 0 | 0.0 | 0.0 | 0.00 | 0.58 | 0.03 | 90 | 1011.3 |
| 20260507052034 | 13 | 0 | 0.0 | 1.6 | 0.03 | 0.58 | 0.03 | 90 | 1011.1 |
| 20260507051533 | 13 | 0 | 0.0 | 1.6 | 0.03 | 0.58 | 0.03 | 89 | 1011.2 |
| 20260507051033 | 13 | 0 | 0.0 | 0.0 | 0.03 | 0.58 | 0.03 | 90 | 1011.1 |
| 20260507050534 | 13 | 0 | 0.0 | 0.0 | 0.03 | 0.58 | 0.03 | 89 | 1010.9 |
| 20260507050035 | 13 | 0 | 0.0 | 1.6 | 0.03 | 0.58 | 0.03 | 88 | 1010.3 |
| 20260507045534 | 13 | 0 | 0.0 | 1.6 | 0.03 | 0.58 | 0.03 | 88 | 1010.9 |
| 20260507044534 | 13 | 0 | 0.0 | 4.8 | 0.03 | 0.58 | 0.03 | 87 | 1011.5 |
| 20260507044035 | 14 | 0 | 0.0 | 4.8 | 0.03 | 0.58 | 0.03 | 86 | 1011.4 |
| 20260507043534 | 14 | 0 | 0.0 | 1.6 | 0.03 | 0.58 | 0.03 | 86 | 1010.9 |
| 20260507042529 | 15 | 0 | 1.6 | 3.2 | 0.00 | 0.56 | 0.00 | 84 | 1011.4 |
| 20260507041525 | 15 | 0 | 1.6 | 4.8 | 0.00 | 0.56 | 0.00 | 80 | 1011.4 |
| 20260507041024 | 15 | 0 | 0.0 | 4.8 | 0.00 | 0.56 | 0.00 | 81 | 1011.3 |
| 20260507040523 | 15 | 0 | 0.0 | 3.2 | 0.00 | 0.56 | 0.00 | 82 | 1011.3 |
| 20260507040023 | 15 | 0 | 0.0 | 1.6 | 0.00 | 0.56 | 0.00 | 82 | 1010.9 |
| 20260507035522 | 15 | 0 | 0.0 | 1.6 | 0.00 | 0.56 | 0.56 | 82 | 1010.8 |
| 20260507035023 | 15 | 0 | 0.0 | 0.0 | 0.00 | 0.56 | 0.56 | 83 | 1010.7 |
| 20260507034519 | 15 | 0 | 0.0 | 1.6 | 0.00 | 0.56 | 0.56 | 81 | 1010.5 |
| 20260507034019 | 16 | 0 | 0.0 | 3.2 | 0.00 | 0.56 | 0.56 | 81 | 1010.7 |
| 20260507033516 | 16 | 0 | 0.0 | 4.8 | 0.00 | 0.56 | 0.56 | 81 | 1010.6 |
| 20260507033016 | 16 | 0 | 1.6 | 4.8 | 0.00 | 0.56 | 0.56 | 81 | 1010.7 |
| 20260507032010 | 16 | 0 | 0.0 | 3.2 | 0.00 | 0.56 | 0.56 | 82 | 1010.6 |
| 20260507031510 | 16 | 0 | 0.0 | 3.2 | 0.00 | 0.56 | 0.56 | 82 | 1010.7 |
| 20260507031010 | 16 | 0 | 0.0 | 3.2 | 0.00 | 0.56 | 0.56 | 83 | 1011.1 |
| 20260507030511 | 16 | 0 | 0.0 | 3.2 | 0.00 | 0.56 | 0.56 | 83 | 1010.8 |
| 20260507030012 | 16 | 0 | 0.0 | 3.2 | 0.00 | 0.56 | 0.56 | 83 | 1010.5 |
| 20260507025509 | 16 | 0 | 0.0 | 3.2 | 0.00 | 0.56 | 0.56 | 83 | 1010.3 |
| 20260507025002 | 16 | 0 | 0.0 | 3.2 | 0.00 | 0.56 | 0.56 | 84 | 1010.0 |
| 20260507024457 | 16 | 0 | 0.0 | 1.6 | 0.00 | 0.56 | 0.56 | 86 | 1009.8 |
| 20260507023951 | 16 | 0 | 0.0 | 3.2 | 0.00 | 0.56 | 0.56 | 85 | 1009.7 |
| 20260507023445 | 16 | 0 | 1.6 | 8.0 | 0.00 | 0.56 | 0.56 | 85 | 1010.2 |
| 20260507022939 | 17 | 0 | 0.0 | 8.0 | 0.00 | 0.56 | 0.56 | 87 | 1010.2 |
| 20260507022432 | 17 | 0 | 0.0 | 1.6 | 0.00 | 0.56 | 0.56 | 88 | 1009.9 |
| 20260507021927 | 17 | 0 | 0.0 | 1.6 | 0.00 | 0.56 | 0.56 | 89 | 1009.9 |
| 20260507021421 | 17 | 0 | 0.0 | 0.0 | 0.00 | 0.56 | 0.56 | 89 | 1009.9 |
| 20260507020408 | 17 | 0 | 0.0 | 0.0 | 0.00 | 0.56 | 0.56 | 89 | 1009.7 |
| 20260507015903 | 17 | 0 | 0.0 | 0.0 | 0.00 | 0.56 | 0.56 | 89 | 1009.8 |
| 20260507015356 | 17 | 0 | 0.0 | 0.0 | 0.00 | 0.56 | 0.56 | 89 | 1009.7 |
| 20260507014850 | 17 | 0 | 0.0 | 1.6 | 0.00 | 0.56 | 0.56 | 89 | 1009.7 |
| 20260507014344 | 17 | 0 | 0.0 | 1.6 | 0.00 | 0.56 | 0.56 | 89 | 1009.7 |
| 20260507013838 | 17 | 0 | 0.0 | 1.6 | 0.00 | 0.56 | 0.56 | 89 | 1009.7 |
| 20260507012839 | 17 | 0 | 0.0 | 1.6 | 0.00 | 0.56 | 0.56 | 89 | 1009.6 |
| 20260507012339 | 18 | 0 | 0.0 | 1.6 | 0.00 | 0.56 | 0.56 | 90 | 1009.8 |
| 20260507011838 | 18 | 0 | 0.0 | 1.6 | 0.00 | 0.56 | 0.56 | 90 | 1009.9 |
| 20260507010334 | 18 | 0 | 0.0 | 1.6 | 0.00 | 0.56 | 0.56 | 91 | 1009.9 |
| 20260507005834 | 18 | 0 | 0.0 | 1.6 | 0.00 | 0.56 | 0.56 | 91 | 1009.8 |
| 20260507005335 | 18 | 0 | 0.0 | 0.0 | 0.03 | 0.56 | 0.56 | 91 | 1009.8 |
| 20260507004832 | 18 | 0 | 0.0 | 0.0 | 0.03 | 0.56 | 0.56 | 90 | 1009.7 |
| 20260507004329 | 18 | 0 | 0.0 | 0.0 | 0.03 | 0.56 | 0.56 | 90 | 1009.5 |
| 20260507003830 | 18 | 0 | 0.0 | 0.0 | 0.03 | 0.56 | 0.56 | 89 | 1009.5 |
| 20260507002829 | 19 | 0 | 0.0 | 0.0 | 0.03 | 0.56 | 0.56 | 88 | 1009.5 |
| 20260507001823 | 19 | 0 | 0.0 | 0.0 | 0.03 | 0.56 | 0.56 | 88 | 1009.4 |
| 20260507001325 | 20 | 0 | 0.0 | 0.0 | 0.03 | 0.56 | 0.56 | 87 | 1009.3 |
| 20260507000823 | 20 | 0 | 0.0 | 0.0 | 0.03 | 0.56 | 0.56 | 86 | 1009.2 |
| 20260507000324 | 20 | 0 | 0.0 | 0.0 | 0.03 | 0.56 | 0.56 | 85 | 1009.2 |
| 20260506235824 | 20 | 0 | 0.0 | 0.0 | 0.03 | 0.56 | 0.56 | 85 | 1009.1 |
| 20260506235325 | 20 | 0 | 0.0 | 0.0 | 0.00 | 0.53 | 0.53 | 83 | 1009.1 |
| 20260506234821 | 20 | 0 | 0.0 | 0.0 | 0.00 | 0.53 | 0.53 | 82 | 1009.2 |
| 20260506234321 | 20 | 0 | 0.0 | 0.0 | 0.00 | 0.53 | 0.53 | 81 | 1009.0 |
| 20260506233323 | 20 | 0 | 0.0 | 0.0 | 0.00 | 0.53 | 0.53 | 79 | 1008.7 |
| 20260506232821 | 20 | 0 | 0.0 | 1.6 | 0.00 | 0.53 | 0.53 | 78 | 1008.6 |
| 20260506231818 | 21 | 0 | 0.0 | 0.0 | 0.00 | 0.53 | 0.53 | 78 | 1008.5 |
| 20260506231317 | 21 | 0 | 0.0 | 1.6 | 0.00 | 0.53 | 0.53 | 78 | 1008.4 |
| 20260506230317 | 21 | 0 | 0.0 | 4.8 | 0.00 | 0.53 | 0.53 | 77 | 1008.2 |
| 20260506225817 | 21 | 0 | 0.0 | 4.8 | 0.00 | 0.53 | 0.53 | 76 | 1008.3 |
| 20260506225317 | 21 | 0 | 0.0 | 6.4 | 0.00 | 0.53 | 0.53 | 76 | 1008.3 |
| 20260506224818 | 21 | 0 | 1.6 | 6.4 | 0.00 | 0.53 | 0.53 | 77 | 1008.3 |
| 20260506224319 | 21 | 0 | 1.6 | 6.4 | 0.00 | 0.53 | 0.53 | 76 | 1008.2 |
| 20260506223813 | 21 | 0 | 0.0 | 6.4 | 0.00 | 0.53 | 0.53 | 75 | 1008.3 |
| 20260506222813 | 21 | 0 | 0.0 | 4.8 | 0.00 | 0.53 | 0.53 | 76 | 1008.0 |
| 20260506222313 | 21 | 0 | 1.6 | 4.8 | 0.00 | 0.53 | 0.53 | 76 | 1008.2 |
| 20260506221813 | 21 | 0 | 1.6 | 6.4 | 0.00 | 0.53 | 0.53 | 76 | 1008.2 |
| 20260506220813 | 21 | 0 | 1.6 | 9.7 | 0.00 | 0.53 | 0.53 | 76 | 1008.1 |
| 20260506220311 | 21 | 0 | 3.2 | 14.5 | 0.00 | 0.53 | 0.53 | 77 | 1008.0 |
| 20260506215812 | 21 | 0 | 3.2 | 14.5 | 0.00 | 0.53 | 0.53 | 77 | 1008.1 |
| 20260506215306 | 21 | 0 | 1.6 | 4.8 | 0.00 | 0.53 | 0.53 | 76 | 1008.0 |
| 20260506214757 | 21 | 0 | 1.6 | 6.4 | 0.00 | 0.53 | 0.53 | 77 | 1008.1 |
| 20260506214252 | 21 | 0 | 1.6 | 9.7 | 0.00 | 0.53 | 0.53 | 77 | 1008.1 |
| 20260506213746 | 21 | 0 | 3.2 | 14.5 | 0.00 | 0.53 | 0.53 | 77 | 1008.1 |
| 20260506213240 | 21 | 0 | 3.2 | 14.5 | 0.00 | 0.53 | 0.53 | 77 | 1008.1 |
| 20260506212734 | 21 | 0 | 1.6 | 8.0 | 0.00 | 0.53 | 0.53 | 76 | 1008.1 |
| 20260506212227 | 21 | 0 | 1.6 | 9.7 | 0.00 | 0.53 | 0.53 | 77 | 1008.0 |
| 20260506211722 | 21 | 0 | 3.2 | 12.9 | 0.00 | 0.53 | 0.53 | 76 | 1008.0 |
| 20260506211215 | 21 | 0 | 1.6 | 12.9 | 0.00 | 0.53 | 0.53 | 75 | 1008.1 |
| 20260506210710 | 21 | 0 | 1.6 | 9.7 | 0.00 | 0.53 | 0.53 | 75 | 1008.1 |
| 20260506210202 | 21 | 0 | 3.2 | 6.4 | 0.00 | 0.53 | 0.53 | 75 | 1008.0 |
| 20260506205655 | 21 | 0 | 3.2 | 8.0 | 0.00 | 0.53 | 0.53 | 75 | 1007.9 |
| 20260506205150 | 21 | 0 | 3.2 | 8.0 | 0.00 | 0.53 | 0.53 | 76 | 1007.9 |
| 20260506204643 | 21 | 0 | 3.2 | 8.0 | 0.00 | 0.53 | 0.53 | 78 | 1007.8 |
| 20260506204142 | 21 | 0 | 3.2 | 9.7 | 0.00 | 0.53 | 0.53 | 76 | 1007.7 |
| 20260506203628 | 21 | 0 | 3.2 | 16.1 | 0.00 | 0.53 | 0.53 | 76 | 1007.6 |
| 20260506203122 | 21 | 0 | 3.2 | 16.1 | 0.00 | 0.53 | 0.53 | 77 | 1007.6 |
| 20260506202616 | 20 | 0 | 3.2 | 20.9 | 0.00 | 0.53 | 0.53 | 78 | 1007.7 |
| 20260506202111 | 21 | 0 | 3.2 | 20.9 | 0.00 | 0.53 | 0.53 | 77 | 1007.7 |
| 20260506201604 | 20 | 0 | 3.2 | 8.0 | 0.00 | 0.53 | 0.53 | 78 | 1007.7 |
| 20260506201058 | 20 | 0 | 3.2 | 12.9 | 0.00 | 0.53 | 0.53 | 78 | 1007.7 |
| 20260506200548 | 20 | 0 | 4.8 | 12.9 | 0.00 | 0.53 | 0.53 | 78 | 1007.9 |
| 20260506200041 | 20 | 0 | 3.2 | 12.9 | 0.00 | 0.53 | 0.53 | 78 | 1008.0 |
| 20260506195535 | 20 | 0 | 3.2 | 14.5 | 0.00 | 0.53 | 0.53 | 78 | 1008.0 |
| 20260506195030 | 20 | 0 | 3.2 | 14.5 | 0.00 | 0.53 | 0.53 | 78 | 1008.0 |
| 20260506194524 | 20 | 0 | 3.2 | 12.9 | 0.00 | 0.53 | 0.53 | 78 | 1008.0 |
| 20260506194017 | 20 | 0 | 3.2 | 12.9 | 0.00 | 0.53 | 0.53 | 77 | 1007.9 |
| 20260506193512 | 20 | 0 | 3.2 | 9.7 | 0.00 | 0.53 | 0.53 | 77 | 1007.9 |
| 20260506193006 | 21 | 0 | 3.2 | 9.7 | 0.00 | 0.53 | 0.53 | 77 | 1008.0 |
| 20260506192504 | 21 | 0 | 3.2 | 9.7 | 0.00 | 0.53 | 0.53 | 77 | 1008.0 |
| 20260506192003 | 20 | 0 | 3.2 | 9.7 | 0.00 | 0.53 | 0.53 | 79 | 1008.0 |
| 20260506191503 | 20 | 0 | 3.2 | 9.7 | 0.00 | 0.53 | 0.53 | 78 | 1008.1 |
| 20260506191003 | 20 | 0 | 3.2 | 16.1 | 0.00 | 0.53 | 0.53 | 79 | 1008.1 |
| 20260506190502 | 20 | 0 | 3.2 | 16.1 | 0.00 | 0.53 | 0.53 | 79 | 1008.3 |
| 20260506190000 | 20 | 0 | 3.2 | 16.1 | 0.00 | 0.53 | 0.53 | 79 | 1008.2 |
| 20260506185500 | 20 | 0 | 3.2 | 17.7 | 0.00 | 0.53 | 0.53 | 81 | 1008.4 |
| 20260506184959 | 19 | 0 | 3.2 | 17.7 | 0.00 | 0.53 | 0.53 | 81 | 1008.4 |
| 20260506184459 | 19 | 0 | 1.6 | 14.5 | 0.00 | 0.53 | 0.53 | 80 | 1008.4 |
| 20260506183959 | 19 | 0 | 1.6 | 16.1 | 0.00 | 0.53 | 0.53 | 81 | 1008.5 |
| 20260506182957 | 19 | 0 | 3.2 | 8.0 | 0.00 | 0.53 | 0.53 | 81 | 1008.7 |
| 20260506182457 | 18 | 0 | 3.2 | 9.7 | 0.00 | 0.53 | 0.53 | 81 | 1008.7 |
| 20260506181956 | 18 | 0 | 3.2 | 9.7 | 0.00 | 0.53 | 0.53 | 82 | 1008.7 |
| 20260506181455 | 18 | 0 | 3.2 | 12.9 | 0.00 | 0.53 | 0.53 | 82 | 1008.9 |
| 20260506180956 | 18 | 0 | 3.2 | 12.9 | 0.00 | 0.53 | 0.53 | 81 | 1009.0 |
| 20260506180455 | 18 | 0 | 3.2 | 8.0 | 0.00 | 0.53 | 0.53 | 82 | 1009.0 |
| 20260506175956 | 18 | 0 | 3.2 | 12.9 | 0.00 | 0.53 | 0.53 | 82 | 1009.0 |
| 20260506175450 | 18 | 0 | 3.2 | 12.9 | 0.00 | 0.53 | 0.53 | 82 | 1009.0 |
| 20260506174943 | 18 | 0 | 3.2 | 12.9 | 0.00 | 0.53 | 0.53 | 82 | 1009.0 |
| 20260506174438 | 18 | 0 | 3.2 | 9.7 | 0.00 | 0.53 | 0.53 | 82 | 1009.0 |
| 20260506173932 | 18 | 0 | 3.2 | 12.9 | 0.00 | 0.53 | 0.53 | 82 | 1009.0 |
| 20260506173426 | 18 | 0 | 3.2 | 14.5 | 0.00 | 0.53 | 0.53 | 82 | 1009.0 |
| 20260506172920 | 18 | 0 | 3.2 | 14.5 | 0.00 | 0.53 | 0.53 | 83 | 1009.1 |
| 20260506172414 | 18 | 0 | 1.6 | 14.5 | 0.00 | 0.53 | 0.53 | 84 | 1009.1 |
| 20260506171908 | 18 | 0 | 1.6 | 8.0 | 0.00 | 0.53 | 0.53 | 84 | 1009.3 |
| 20260506170856 | 17 | 0 | 3.2 | 8.0 | 0.00 | 0.53 | 0.53 | 84 | 1009.2 |
| 20260506170350 | 17 | 0 | 3.2 | 16.1 | 0.00 | 0.53 | 0.53 | 85 | 1009.3 |
| 20260506165844 | 17 | 0 | 3.2 | 16.1 | 0.00 | 0.53 | 0.53 | 85 | 1009.2 |
| 20260506165338 | 17 | 0 | 3.2 | 12.9 | 0.00 | 0.53 | 0.53 | 85 | 1009.3 |
| 20260506164835 | 17 | 0 | 3.2 | 16.1 | 0.00 | 0.53 | 0.53 | 86 | 1009.2 |
| 20260506164335 | 17 | 0 | 4.8 | 19.3 | 0.00 | 0.53 | 0.53 | 86 | 1009.3 |
| 20260506163336 | 17 | 0 | 4.8 | 17.7 | 0.00 | 0.53 | 0.53 | 87 | 1009.2 |
| 20260506162833 | 17 | 0 | 4.8 | 16.1 | 0.00 | 0.53 | 0.53 | 88 | 1009.5 |